Project,Study,Ord_Occ,Event_Num,Cast_ID,Date_Time_UTC,Date_Time_PST,Lat_Dec,Lon_Dec,Sta_ID,Line,Sta,Depth,Pressure,PrQ,Temp1,Temp1Q,Temp2,Temp2Q,TempAve,Salt1,Salt1Q,Salt1_Corr,Salt2,Salt2Q,Salt2_Corr,SaltAve_Corr,Ox1,Ox1Q,Ox1_CruiseCorr,Ox1_StaCorr,Ox2,Ox2Q,Ox2_CruiseCorr,Ox2_StaCorr,OxAve_StaCorr,Ox1uM,Ox1uM_CruiseCorr,Ox1uM_StaCorr,Ox2uM,Ox2uM_CruiseCorr,Ox2uM_StaCorr,OxAveuM_StaCorr,FluorV,FluorQ,EstChl_CruiseCorr,EstChl_StaCorr,ISUSV,ISUSQ,EstNO3_CruiseCorr,EstNO3_StaCorr,SigThetaTS1,SigThetaTS1Q,SigThetaTS2,SigThetaTS2Q,BAT,XMiss,TransQ,pH,pHQ,SPAR,SPARQ,PAR,PARQ,PoT1,PoT2,DynHt,SVA,OxSat1,OxSat2,BTL_Depth,BTL_Temp,SaltB,OxB,OxBuM,Chl-a,Phaeo,NO3,NO2,NH4,PO4,SIL
CalCOFI,2101RL,025,,2101_025d,22-Jan-2021 02:26:59,21-Jan-2021 18:26:59,32.65054,-119.48192,090.0 053.0,090.0,053.0,3.000,3.021,,14.8014,,14.7993,,14.8004,33.3440,,33.3498,33.3403,,33.3423,33.3461,5.6512,,5.9144,5.7708,5.5501,,5.8928,5.7549,5.7629,246.289,258.0755,160.9484,241.883,274.3296,161.0588,161.0036,0.1102,,0.6548,0.5270, ,, , ,24.7384,,24.7361,,0.8506,80.8439,,,,3.2620E+00,,5.5708E-02,,14.8009,14.7988,0.0017,319.768,97.879,96.122,3,,33.3374,5.892,256.98,0.504,0.141,,,,,
CalCOFI,2101RL,025,,2101_025d,22-Jan-2021 02:27:05,21-Jan-2021 18:27:05,32.65054,-119.48194,090.0 053.0,090.0,053.0,4.000,4.028,,14.7809,,14.7946,,14.7878,33.3441,,33.3499,33.3407,,33.3427,33.3463,5.6482,,5.9113,5.7704,5.5632,,5.9067,5.7563,5.7634,246.159,257.9394,161.0011,242.455,274.1851,160.8172,160.9092,0.1139,,0.6851,0.5460, ,, , ,24.7430,,24.7374,,0.8510,80.8352,,,,3.4219E+00,,1.8148E-02,,14.7803,14.7941,0.0058,319.362,97.788,96.340,,,,,,,,,,,,
CalCOFI,2101RL,025,,2101_025d,22-Jan-2021 02:27:07,21-Jan-2021 18:27:07,32.65054,-119.48194,090.0 053.0,090.0,053.0,5.000,5.035,,14.7293,,14.7522,,14.7408,33.3429,,33.3487,33.3409,,33.3429,33.3458,5.6592,,5.9228,5.7717,5.5965,,5.9420,5.7600,5.7659,246.637,258.4398,160.8073,243.904,274.7166,160.2051,160.5062,0.1209,,0.7425,0.5808, ,, , ,24.7531,,24.7467,,0.8583,80.6887,,,,3.5194E+00,,5.8148E-03,,14.7285,14.7514,0.0090,318.424,97.877,96.835,,,,,,,,,,,,
CalCOFI,2101RL,025,,2101_025d,22-Jan-2021 02:27:09,21-Jan-2021 18:27:09,32.65054,-119.48196,090.0 053.0,090.0,053.0,6.000,6.042,,14.7353,,14.7348,,14.7351,33.3439,,33.3497,33.3393,,33.3413,33.3455,5.6668,,5.9308,5.7725,5.6041,,5.9501,5.7608,5.7667,246.968,258.7863,160.6732,244.234,275.0847,160.0657,160.3695,0.1110,,0.6613,0.5312, ,, , ,24.7526,,24.7492,,0.8592,80.6705,,,,2.7027E+00,,-2.271E-04,,14.7344,14.7339,0.0122,318.501,98.020,96.931,,,,,,,,,,,,
CalCOFI,2101RL,025,,2101_025d,22-Jan-2021 02:27:11,21-Jan-2021 18:27:11,32.65054,-119.48196,090.0 053.0,090.0,053.0,7.000,7.050,,14.7592,,14.7638,,14.7615,33.3441,,33.3499,33.3404,,33.3424,33.3462,5.6522,,5.9155,5.7709,5.5971,,5.9427,5.7601,5.7655,246.330,258.1184,160.9318,243.932,274.3752,160.1933,160.5626,0.1071,,0.6294,0.5107, ,, , ,24.7477,,24.7438,,0.8550,80.7539,,,,3.7111E+00,,1.0000E-12,,14.7581,14.7627,0.0154,319.002,97.814,96.868,,,,,,,,,,,,
CalCOFI,2101RL,025,,2101_025d,22-Jan-2021 02:27:13,21-Jan-2021 18:27:13,32.65054,-119.48196,090.0 053.0,090.0,053.0,8.000,8.057,,14.7781,,14.7740,,14.7761,33.3445,,33.3503,33.3401,,33.3421,33.3462,5.6210,,5.8828,5.7674,5.5893,,5.9344,5.7592,5.7633,244.973,256.6979,161.4819,243.590,272.8662,160.3377,160.9098,0.1111,,0.6622,0.5317, ,, , ,24.7440,,24.7414,,0.8542,80.7722,,,,3.6947E+00,,1.0000E-12,,14.7769,14.7728,0.0186,319.384,97.312,96.751,,,,,,,,,,,,
CalCOFI,2101RL,025,,2101_025d,22-Jan-2021 02:27:15,21-Jan-2021 18:27:15,32.65054,-119.48197,090.0 053.0,090.0,053.0,9.000,9.064,,14.7102,,14.6839,,14.6971,33.3438,,33.3496,33.3401,,33.3421,33.3459,5.6617,,5.9254,5.7720,5.5914,,5.9366,5.7594,5.7657,246.744,258.5518,160.7640,243.677,274.8356,160.3010,160.5325,0.1191,,0.7277,0.5720, ,, , ,24.7580,,24.7608,,0.8588,80.6791,,,,3.6947E+00,,1.0000E-12,,14.7089,14.6826,0.0218,318.077,97.883,96.613,,,,,,,,,,,,
CalCOFI,2101RL,025,,2101_025d,22-Jan-2021 02:27:17,21-Jan-2021 18:27:17,32.65054,-119.48198,090.0 053.0,090.0,053.0,10.000,10.071,,14.6522,,14.6527,,14.6525,33.3434,,33.3492,33.3398,,33.3418,33.3455,5.6636,,5.9274,5.7722,5.5978,,5.9434,5.7601,5.7662,246.822,258.6335,160.7323,243.955,274.9223,160.1836,160.4580,0.1202,,0.7367,0.5774, ,, , ,24.7702,,24.7673,,0.8608,80.6379,,,,3.3990E+00,,1.0000E-12,,14.6507,14.6513,0.0250,316.951,97.800,96.663,10,,33.3376,5.884,256.62,0.595,0.158,,,,,
CalCOFI,2101RL,025,,2101_025d,22-Jan-2021 02:27:19,21-Jan-2021 18:27:19,32.65054,-119.48198,090.0 053.0,090.0,053.0,11.000,11.078,,14.6445,,14.6446,,14.6446,33.3433,,33.3491,33.3397,,33.3417,33.3454,5.6561,,5.9196,5.7713,5.5970,,5.9426,5.7601,5.7657,246.493,258.2891,160.8657,243.919,274.5565,160.1988,160.5323,0.1292,,0.8105,0.6198, ,, , ,24.7717,,24.7690,,0.8606,80.6429,,,,3.6456E+00,,1.0000E-12,,14.6429,14.6430,0.0282,316.833,97.655,96.633,,,,,,,,,,,,
CalCOFI,2101RL,025,,2101_025d,22-Jan-2021 02:27:21,21-Jan-2021 18:27:21,32.65054,-119.48198,090.0 053.0,090.0,053.0,12.000,12.085,,14.6412,,14.6415,,14.6414,33.3434,,33.3492,33.3398,,33.3418,33.3455,5.6401,,5.9028,5.7695,5.6030,,5.9489,5.7607,5.7651,245.799,257.5626,161.1471,244.183,273.7847,160.0873,160.6172,0.1323,,0.8359,0.6338, ,, , ,24.7726,,24.7697,,0.8625,80.6045,,,,3.5817E+00,,1.0000E-12,,14.6394,14.6398,0.0314,316.779,97.374,96.732,,,,,,,,,,,,
CalCOFI,2101RL,025,,2101_025d,22-Jan-2021 02:27:25,21-Jan-2021 18:27:25,32.65054,-119.48199,090.0 053.0,090.0,053.0,13.000,13.092,,14.6385,,14.6383,,14.6384,33.3438,,33.3496,33.3401,,33.3421,33.3459,5.6484,,5.9115,5.7705,5.6070,,5.9532,5.7612,5.7659,246.161,257.9415,161.0003,244.356,274.1873,160.0142,160.5073,0.1302,,0.8187,0.6244, ,, , ,24.7735,,24.7706,,0.8587,80.6798,,,,3.6674E+00,,1.0000E-12,,14.6366,14.6364,0.0346,316.725,97.513,96.795,,,,,,,,,,,,
CalCOFI,2101RL,025,,2101_025d,22-Jan-2021 02:27:32,21-Jan-2021 18:27:32,32.65054,-119.48201,090.0 053.0,090.0,053.0,14.000,14.099,,14.6283,,14.6277,,14.6280,33.3438,,33.3496,33.3402,,33.3422,33.3459,5.6506,,5.9138,5.7707,5.6031,,5.9491,5.7607,5.7657,246.253,258.0378,160.9630,244.183,274.2896,160.0873,160.5252,0.1388,,0.8891,0.6622, ,, , ,24.7757,,24.7731,,0.8556,80.7428,,,,3.4945E+00,,1.0000E-12,,14.6263,14.6256,0.0381,316.545,97.529,96.706,,,,,,,,,,,,
CalCOFI,2101RL,025,,2101_025d,22-Jan-2021 02:27:40,21-Jan-2021 18:27:40,32.65053,-119.48204,090.0 053.0,090.0,053.0,15.000,15.107,,14.6140,,14.6132,,14.6136,33.3437,,33.3495,33.3403,,33.3423,33.3459,5.6453,,5.9083,5.7701,5.6014,,5.9472,5.7605,5.7653,246.025,257.7992,161.0555,244.108,274.0361,160.1189,160.5872,0.1433,,0.9260,0.6810, ,, , ,24.7787,,24.7762,,0.8524,80.8073,,,,3.0442E+00,,1.0000E-12,,14.6118,14.6110,0.0415,316.288,97.411,96.648,,,,,,,,,,,,
CalCOFI,2101RL,025,,2101_025d,22-Jan-2021 02:27:47,21-Jan-2021 18:27:47,32.65051,-119.48205,090.0 053.0,090.0,053.0,16.000,16.114,,14.6014,,14.6011,,14.6013,33.3439,,33.3497,33.3403,,33.3423,33.3460,5.6342,,5.8967,5.7688,5.6067,,5.9529,5.7611,5.7650,245.537,257.2883,161.2533,244.340,273.4934,160.0209,160.6371,0.1428,,0.9219,0.6789, ,, , ,24.7815,,24.7789,,0.8509,80.8377,,,,3.5793E+00,,1.0000E-12,,14.5991,14.5988,0.0448,316.046,97.194,96.717,16,,33.3381,, ,,,,,,,
CalCOFI,2101RL,025,,2101_025d,22-Jan-2021 02:27:51,21-Jan-2021 18:27:51,32.65049,-119.48208,090.0 053.0,090.0,053.0,17.000,17.121,,14.5915,,14.5911,,14.5913,33.3440,,33.3498,33.3405,,33.3425,33.3462,5.6427,,5.9055,5.7698,5.6167,,5.9635,5.7622,5.7660,245.910,257.6788,161.1021,244.776,273.9082,159.8368,160.4695,0.1500,,0.9809,0.7077, ,, , ,24.7838,,24.7811,,0.8517,80.8215,,,,3.2750E+00,,1.0000E-12,,14.5890,14.5886,0.0480,315.860,97.322,96.870,,,,,,,,,,,,
CalCOFI,2101RL,025,,2101_025d,22-Jan-2021 02:27:57,21-Jan-2021 18:27:57,32.65046,-119.48208,090.0 053.0,090.0,053.0,18.000,18.128,,14.5781,,14.5783,,14.5782,33.3440,,33.3498,33.3404,,33.3424,33.3461,5.6392,,5.9019,5.7694,5.6017,,5.9476,5.7606,5.7650,245.756,257.5176,161.1645,244.121,273.7369,160.1134,160.6390,0.1488,,0.9711,0.7030, ,, , ,24.7866,,24.7838,,0.8510,80.8357,,,,3.2078E+00,,1.0000E-12,,14.5754,14.5757,0.0514,315.619,97.236,96.587,,,,,,,,,,,,
CalCOFI,2101RL,025,,2101_025d,22-Jan-2021 02:28:00,21-Jan-2021 18:28:00,32.65046,-119.48208,090.0 053.0,090.0,053.0,19.000,19.135,,14.5701,,14.5702,,14.5702,33.3440,,33.3498,33.3405,,33.3425,33.3462,5.6339,,5.8963,5.7688,5.5912,,5.9364,5.7594,5.7641,245.523,257.2737,161.2590,243.663,273.4778,160.3069,160.7830,0.1470,,0.9563,0.6959, ,, , ,24.7884,,24.7856,,0.8483,80.8894,,,,2.8312E+00,,1.0000E-12,,14.5673,14.5675,0.0545,315.477,97.128,96.390,,,,,,,,,,,,
CalCOFI,2101RL,025,,2101_025d,22-Jan-2021 02:28:04,21-Jan-2021 18:28:04,32.65046,-119.48208,090.0 053.0,090.0,053.0,20.000,20.142,,14.5643,,14.5653,,14.5648,33.3441,,33.3499,33.3405,,33.3425,33.3462,5.6379,,5.9005,5.7693,5.5924,,5.9377,5.7596,5.7645,245.696,257.4548,161.1888,243.715,273.6702,160.2849,160.7369,0.1475,,0.9604,0.6979, ,, , ,24.7897,,24.7867,,0.8406,81.0467,,,,3.1029E+00,,1.0000E-12,,14.5614,14.5624,0.0577,315.382,97.185,96.401,20,,33.3401,5.896,257.15,0.698,0.282,,,,,
CalCOFI,2101RL,025,,2101_025d,22-Jan-2021 02:28:07,21-Jan-2021 18:28:07,32.65046,-119.48208,090.0 053.0,090.0,053.0,21.000,21.150,,14.5614,,14.5622,,14.5618,33.3442,,33.3500,33.3407,,33.3427,33.3464,5.6197,,5.8815,5.7672,5.5821,,5.9267,5.7584,5.7628,244.903,256.6247,161.5103,243.268,272.7884,160.4738,160.9921,0.1442,,0.9334,0.6846, ,, , ,24.7905,,24.7876,,0.9786,78.4763,,,,3.2907E+00,,1.0000E-12,,14.5583,14.5591,0.0609,315.340,96.866,96.218,,,,,,,,,,,,
CalCOFI,2101RL,025,,2101_025d,22-Jan-2021 02:28:11,21-Jan-2021 18:28:11,32.65046,-119.48208,090.0 053.0,090.0,053.0,22.000,22.157,,14.5534,,14.5537,,14.5536,33.3447,,33.3505,33.3412,,33.3432,33.3469,5.6163,,5.8779,5.7668,5.5758,,5.9201,5.7577,5.7623,244.755,256.4697,161.5703,242.991,272.6238,160.5908,161.0806,0.1410,,0.9072,0.6714, ,, , ,24.7926,,24.7898,,1.0630,77.1722,,,,3.6744E+00,,1.0000E-12,,14.5501,14.5505,0.0641,315.170,96.792,96.093,,,,,,,,,,,,
CalCOFI,2101RL,025,,2101_025d,22-Jan-2021 02:28:15,21-Jan-2021 18:28:15,32.65044,-119.48208,090.0 053.0,090.0,053.0,23.000,23.164,,14.5455,,14.5454,,14.5455,33.3456,,33.3514,33.3423,,33.3443,33.3479,5.6105,,5.8718,5.7662,5.5551,,5.8981,5.7555,5.7609,244.502,256.2049,161.6729,242.090,272.3425,160.9713,161.3221,0.1388,,0.8891,0.6622, ,, , ,24.7950,,24.7924,,8.1736,24.3824,,,,3.4277E+00,,1.0000E-12,,14.5421,14.5421,0.0672,314.966,96.678,95.721,,,,,,,,,,,,
CalCOFI,2101RL,025,,2101_025d,22-Jan-2021 02:28:17,21-Jan-2021 18:28:17,32.65044,-119.48209,090.0 053.0,090.0,053.0,24.000,24.171,,14.5360,,14.5357,,14.5359,33.3466,,33.3524,33.3431,,33.3451,33.3488,5.6163,,5.8779,5.7668,5.5518,,5.8946,5.7551,5.7610,244.756,256.4708,161.5699,241.945,272.6249,161.0326,161.3013,0.1388,,0.8891,0.6622, ,, , ,24.7978,,24.7952,,1.2366,77.0318,,,,3.6831E+00,,1.0000E-12,,14.5324,14.5321,0.0704,314.729,96.760,95.646,,,,,,,,,,,,
CalCOFI,2101RL,025,,2101_025d,22-Jan-2021 02:28:19,21-Jan-2021 18:28:19,32.65044,-119.48212,090.0 053.0,090.0,053.0,25.000,25.178,,14.5292,,14.5293,,14.5293,33.3477,,33.3535,33.3441,,33.3461,33.3498,5.6150,,5.8766,5.7667,5.5519,,5.8947,5.7551,5.7609,244.699,256.4111,161.5930,241.947,272.5615,161.0318,161.3124,0.1351,,0.8588,0.6462, ,, , ,24.8001,,24.7973,,0.8552,80.7518,,,,3.1359E+00,,1.0000E-12,,14.5255,14.5257,0.0736,314.540,96.725,95.636,,,,,,,,,,,,
CalCOFI,2101RL,025,,2101_025d,22-Jan-2021 02:28:22,21-Jan-2021 18:28:22,32.65043,-119.48212,090.0 053.0,090.0,053.0,26.000,26.185,,14.5291,,14.5294,,14.5293,33.3477,,33.3535,33.3442,,33.3462,33.3499,5.6111,,5.8725,5.7662,5.5519,,5.8947,5.7551,5.7607,244.527,256.2311,161.6627,241.946,272.3703,161.0322,161.3475,0.1352,,0.8596,0.6467, ,, , ,24.8002,,24.7974,,0.8300,81.2626,,,,3.3495E+00,,1.0000E-12,,14.5253,14.5256,0.0767,314.564,96.657,95.636,,,,,,,,,,,,
CalCOFI,2101RL,025,,2101_025d,22-Jan-2021 02:28:26,21-Jan-2021 18:28:26,32.65040,-119.48214,090.0 053.0,090.0,053.0,27.000,27.193,,14.5285,,14.5290,,14.5288,33.3481,,33.3539,33.3445,,33.3465,33.3502,5.5921,,5.8526,5.7641,5.5402,,5.8822,5.7538,5.7590,243.700,255.3654,161.9980,241.436,271.4506,161.2476,161.6228,0.1354,,0.8613,0.6475, ,, , ,24.8006,,24.7977,,0.8140,81.5875,,,,3.1033E+00,,1.0000E-12,,14.5246,14.5250,0.0799,314.550,96.330,95.433,,,,,,,,,,,,
CalCOFI,2101RL,025,,2101_025d,22-Jan-2021 02:28:28,21-Jan-2021 18:28:28,32.65040,-119.48214,090.0 053.0,090.0,053.0,28.000,28.200,,14.5282,,14.5284,,14.5283,33.3487,,33.3545,33.3454,,33.3474,33.3510,5.6104,,5.8717,5.7662,5.5399,,5.8819,5.7538,5.7600,244.496,256.1986,161.6753,241.425,272.3358,161.2522,161.4638,0.1342,,0.8514,0.6423, ,, , ,24.8012,,24.7986,,0.8448,80.9655,,,,3.4137E+00,,1.0000E-12,,14.5241,14.5243,0.0831,314.527,96.644,95.429,,,,,,,,,,,,
CalCOFI,2101RL,025,,2101_025d,22-Jan-2021 02:28:30,21-Jan-2021 18:28:30,32.65040,-119.48214,090.0 053.0,090.0,053.0,29.000,29.207,,14.5272,,14.5272,,14.5272,33.3493,,33.3551,33.3458,,33.3478,33.3515,5.5957,,5.8564,5.7645,5.5396,,5.8816,5.7538,5.7592,243.854,255.5266,161.9356,241.411,271.6219,161.2582,161.5969,0.1355,,0.8621,0.6480, ,, , ,24.8019,,24.7992,,0.8163,81.5412,,,,3.3873E+00,,1.0000E-12,,14.5229,14.5229,0.0862,314.486,96.389,95.421,,,,,,,,,,,,
CalCOFI,2101RL,025,,2101_025d,22-Jan-2021 02:28:31,21-Jan-2021 18:28:31,32.65040,-119.48215,090.0 053.0,090.0,053.0,30.000,30.214,,14.5177,,14.5172,,14.5175,33.3503,,33.3561,33.3469,,33.3489,33.3525,5.5806,,5.8406,5.7628,5.5384,,5.8803,5.7536,5.7582,243.199,254.8409,162.2011,241.360,270.8935,161.2797,161.7404,0.1317,,0.8310,0.6312, ,, , ,24.8047,,24.8022,,0.8146,81.5749,,,,3.5305E+00,,1.0000E-12,,14.5134,14.5128,0.0894,314.249,96.113,95.382,,,,,,,,,,,,
CalCOFI,2101RL,025,,2101_025d,22-Jan-2021 02:28:35,21-Jan-2021 18:28:35,32.65040,-119.48217,090.0 053.0,090.0,053.0,31.000,31.222,,14.5011,,14.5009,,14.5010,33.3517,,33.3575,33.3482,,33.3502,33.3539,5.5780,,5.8378,5.7625,5.5366,,5.8784,5.7534,5.7580,243.083,254.7195,162.2481,241.278,270.7645,161.3143,161.7812,0.1257,,0.7818,0.6036, ,, , ,24.8093,,24.8067,,0.8101,81.6658,,,,3.2333E+00,,1.0000E-12,,14.4965,14.4963,0.0926,313.836,96.036,95.320,,,,,,,,,,,,
CalCOFI,2101RL,025,,2101_025d,22-Jan-2021 02:28:37,21-Jan-2021 18:28:37,32.65040,-119.48218,090.0 053.0,090.0,053.0,32.000,32.229,,14.4740,,14.4726,,14.4733,33.3538,,33.3596,33.3505,,33.3525,33.3561,5.5826,,5.8426,5.7630,5.5304,,5.8718,5.7528,5.7579,243.280,254.9257,162.1683,241.006,270.9836,161.4292,161.7988,0.1280,,0.8006,0.6143, ,, , ,24.8167,,24.8145,,0.8078,81.7145,,,,3.3791E+00,,1.0000E-12,,14.4693,14.4679,0.0957,313.159,96.063,95.160,,,,,,,,,,,,
CalCOFI,2101RL,025,,2101_025d,22-Jan-2021 02:28:39,21-Jan-2021 18:28:39,32.65038,-119.48220,090.0 053.0,090.0,053.0,33.000,33.236,,14.4378,,14.4373,,14.4376,33.3565,,33.3623,33.3530,,33.3550,33.3587,5.5744,,5.8341,5.7621,5.5151,,5.8556,5.7511,5.7566,242.921,254.5499,162.3138,240.337,270.5844,161.7118,162.0128,0.1206,,0.7400,0.5793, ,, , ,24.8265,,24.8239,,0.8061,81.7482,,,,3.3761E+00,,1.0000E-12,,14.4330,14.4325,0.0989,312.259,95.854,94.831,,,,,,,,,,,,
CalCOFI,2101RL,025,,2101_025d,22-Jan-2021 02:28:41,21-Jan-2021 18:28:41,32.65038,-119.48220,090.0 053.0,090.0,053.0,34.000,34.243,,14.4153,,14.4146,,14.4150,33.3579,,33.3637,33.3545,,33.3565,33.3601,5.5770,,5.8368,5.7624,5.5250,,5.8661,5.7522,5.7573,243.034,254.6682,162.2680,240.768,270.7100,161.5298,161.8989,0.1182,,0.7203,0.5676, ,, , ,24.8324,,24.8299,,0.8026,81.8207,,,,3.2295E+00,,1.0000E-12,,14.4103,14.4096,0.1020,311.725,95.856,94.959,,,,,,,,,,,,
CalCOFI,2101RL,025,,2101_025d,22-Jan-2021 02:28:43,21-Jan-2021 18:28:43,32.65038,-119.48220,090.0 053.0,090.0,053.0,35.000,35.250,,14.3934,,14.3938,,14.3936,33.3595,,33.3653,33.3560,,33.3580,33.3617,5.5734,,5.8330,5.7620,5.5249,,5.8660,5.7521,5.7571,242.877,254.5038,162.3316,240.764,270.5354,161.5315,161.9316,0.1177,,0.7162,0.5651, ,, , ,24.8382,,24.8355,,0.8019,81.8348,,,,3.5425E+00,,1.0000E-12,,14.3883,14.3887,0.1052,311.196,95.754,94.919,,,,,,,,,,,,
CalCOFI,2101RL,025,,2101_025d,22-Jan-2021 02:28:45,21-Jan-2021 18:28:45,32.65038,-119.48220,090.0 053.0,090.0,053.0,36.000,36.258,,14.3635,,14.3603,,14.3619,33.3609,,33.3667,33.3576,,33.3596,33.3632,5.5681,,5.8275,5.7614,5.5131,,5.8535,5.7509,5.7562,242.645,254.2610,162.4257,240.245,270.2774,161.7507,162.0882,0.1135,,0.6818,0.5440, ,, , ,24.8457,,24.8438,,0.7985,81.9051,,,,3.5668E+00,,1.0000E-12,,14.3583,14.3551,0.1083,310.518,95.606,94.652,,,,,,,,,,,,
CalCOFI,2101RL,025,,2101_025d,22-Jan-2021 02:28:47,21-Jan-2021 18:28:47,32.65038,-119.48220,090.0 053.0,090.0,053.0,37.000,37.265,,14.3382,,14.3389,,14.3386,33.3625,,33.3683,33.3591,,33.3611,33.3647,5.5572,,5.8161,5.7601,5.5207,,5.8615,5.7517,5.7559,242.167,253.7606,162.6195,240.578,269.7459,161.6100,162.1148,0.1111,,0.6622,0.5317, ,, , ,24.8523,,24.8495,,0.7954,81.9680,,,,3.5261E+00,,1.0000E-12,,14.3328,14.3336,0.1114,309.913,95.371,94.744,,,,,,,,,,,,
CalCOFI,2101RL,025,,2101_025d,22-Jan-2021 02:28:49,21-Jan-2021 18:28:49,32.65038,-119.48222,090.0 053.0,090.0,053.0,38.000,38.272,,14.3181,,14.3185,,14.3183,33.3633,,33.3691,33.3599,,33.3619,33.3655,5.5673,,5.8266,5.7613,5.5228,,5.8638,5.7519,5.7566,242.604,254.2181,162.4423,240.665,270.2319,161.5733,162.0078,0.1125,,0.6736,0.5389, ,, , ,24.8572,,24.8544,,0.7985,81.9034,,,,2.6747E+00,,1.0000E-12,,14.3126,14.3130,0.1145,309.476,95.505,94.740,,,,,,,,,,,,
CalCOFI,2101RL,025,,2101_025d,22-Jan-2021 02:28:50,21-Jan-2021 18:28:50,32.65038,-119.48222,090.0 053.0,090.0,053.0,39.000,39.280,,14.2716,,14.2701,,14.2709,33.3661,,33.3719,33.3628,,33.3648,33.3684,5.5793,,5.8392,5.7626,5.5225,,5.8634,5.7519,5.7573,243.125,254.7635,162.2311,240.651,270.8112,161.5792,161.9052,0.1067,,0.6261,0.5086, ,, , ,24.8691,,24.8669,,0.7911,82.0553,,,,3.5785E+00,,1.0000E-12,,14.2659,14.2644,0.1177,308.367,95.623,94.645,39,,33.3636,, ,,,,,,,
CalCOFI,2101RL,025,,2101_025d,22-Jan-2021 02:28:53,21-Jan-2021 18:28:53,32.65036,-119.48222,090.0 053.0,090.0,053.0,40.000,40.287,,14.2542,,14.2524,,14.2533,33.3672,,33.3730,33.3638,,33.3658,33.3694,5.5638,,5.8230,5.7609,5.5032,,5.8429,5.7498,5.7554,242.449,254.0558,162.5052,239.809,270.0595,161.9348,162.2200,0.1040,,0.6040,0.4941, ,, , ,24.8737,,24.8714,,0.7891,82.0968,,,,3.6913E+00,,1.0000E-12,,14.2484,14.2467,0.1208,307.962,95.325,94.281,,,,,,,,,,,,
CalCOFI,2101RL,025,,2101_025d,22-Jan-2021 02:28:55,21-Jan-2021 18:28:55,32.65036,-119.48222,090.0 053.0,090.0,053.0,41.000,41.294,,14.2149,,14.2124,,14.2137,33.3695,,33.3753,33.3664,,33.3684,33.3719,5.5528,,5.8115,5.7596,5.5073,,5.8473,5.7502,5.7549,241.969,253.5533,162.6998,239.985,269.5257,161.8605,162.2802,0.1000,,0.5712,0.4722, ,, , ,24.8837,,24.8818,,0.7866,82.1474,,,,3.6947E+00,,1.0000E-12,,14.2090,14.2065,0.1239,307.035,95.063,94.276,,,,,,,,,,,,
CalCOFI,2101RL,025,,2101_025d,22-Jan-2021 02:28:56,21-Jan-2021 18:28:56,32.65036,-119.48222,090.0 053.0,090.0,053.0,42.000,42.301,,14.1788,,14.1782,,14.1785,33.3720,,33.3778,33.3684,,33.3704,33.3741,5.5540,,5.8127,5.7598,5.5105,,5.8507,5.7506,5.7552,242.016,253.6025,162.6807,240.121,269.5780,161.8031,162.2419,0.0976,,0.5515,0.4588, ,, , ,24.8932,,24.8906,,0.7852,82.1759,,,,3.6947E+00,,1.0000E-12,,14.1727,14.1722,0.1269,306.153,95.014,94.267,,,,,,,,,,,,
CalCOFI,2101RL,025,,2101_025d,22-Jan-2021 02:28:59,21-Jan-2021 18:28:59,32.65035,-119.48222,090.0 053.0,090.0,053.0,43.000,43.309,,14.1463,,14.1445,,14.1454,33.3726,,33.3784,33.3691,,33.3711,33.3748,5.5815,,5.8415,5.7629,5.5273,,5.8685,5.7524,5.7577,243.214,254.8566,162.1950,240.853,270.9102,161.4939,161.8445,0.0946,,0.5270,0.4418, ,, , ,24.9005,,24.8982,,0.7811,82.2610,,,,3.6947E+00,,1.0000E-12,,14.1401,14.1383,0.1300,305.488,95.423,94.491,,,,,,,,,,,,
CalCOFI,2101RL,025,,2101_025d,22-Jan-2021 02:29:01,21-Jan-2021 18:29:01,32.65035,-119.48222,090.0 053.0,090.0,053.0,44.000,44.316,,14.1184,,14.1175,,14.1180,33.3745,,33.3803,33.3712,,33.3732,33.3768,5.5911,,5.8515,5.7640,5.5446,,5.8869,5.7543,5.7592,243.629,255.2910,162.0268,241.606,271.3717,161.1758,161.6013,0.0924,,0.5089,0.4292, ,, , ,24.9078,,24.9055,,0.7771,82.3429,,,,3.6947E+00,,1.0000E-12,,14.1121,14.1112,0.1331,304.817,95.534,94.737,,,,,,,,,,,,
CalCOFI,2101RL,025,,2101_025d,22-Jan-2021 02:29:03,21-Jan-2021 18:29:03,32.65036,-119.48222,090.0 053.0,090.0,053.0,45.000,45.323,,14.0805,,14.0779,,14.0792,33.3781,,33.3839,33.3751,,33.3771,33.3805,5.5898,,5.8502,5.7638,5.5537,,5.8966,5.7553,5.7596,243.570,255.2293,162.0507,241.998,271.3061,161.0102,161.5305,0.0924,,0.5089,0.4292, ,, , ,24.9185,,24.9167,,0.7757,82.3707,,,,3.6947E+00,,1.0000E-12,,14.0741,14.0714,0.1362,303.825,95.440,94.817,,,,,,,,,,,,
CalCOFI,2101RL,025,,2101_025d,22-Jan-2021 02:29:04,21-Jan-2021 18:29:04,32.65036,-119.48222,090.0 053.0,090.0,053.0,46.000,46.331,,14.0114,,14.0094,,14.0104,33.3859,,33.3917,33.3830,,33.3850,33.3884,5.5873,,5.8476,5.7635,5.5570,,5.9001,5.7557,5.7596,243.458,255.1120,162.0961,242.137,271.1815,160.9515,161.5238,0.0882,,0.4745,0.4045, ,, , ,24.9390,,24.9371,,0.7781,82.3233,,,,3.6947E+00,,1.0000E-12,,14.0048,14.0028,0.1392,301.903,95.269,94.747,,,,,,,,,,,,
CalCOFI,2101RL,025,,2101_025d,22-Jan-2021 02:29:06,21-Jan-2021 18:29:06,32.65034,-119.48224,090.0 053.0,090.0,053.0,47.000,47.338,,13.9584,,13.9568,,13.9576,33.3934,,33.3992,33.3898,,33.3918,33.3955,5.5762,,5.8360,5.7623,5.5428,,5.8850,5.7541,5.7582,242.969,254.6001,162.2944,241.513,270.6377,161.2151,161.7548,0.0781,,0.3918,0.3429, ,, , ,24.9557,,24.9533,,0.7688,82.5151,,,,3.6947E+00,,1.0000E-12,,13.9517,13.9501,0.1422,300.336,94.982,94.407,,,,,,,,,,,,
CalCOFI,2101RL,025,,2101_025d,22-Jan-2021 02:29:08,21-Jan-2021 18:29:08,32.65034,-119.48223,090.0 053.0,090.0,053.0,48.000,48.345,,13.9170,,13.9170,,13.9170,33.3927,,33.3985,33.3890,,33.3910,33.3948,5.5792,,5.8391,5.7626,5.5328,,5.8744,5.7530,5.7578,243.099,254.7362,162.2417,241.077,270.7823,161.3992,161.8205,0.0758,,0.3729,0.3284, ,, , ,24.9637,,24.9609,,0.7653,82.5857,,,,3.6947E+00,,1.0000E-12,,13.9102,13.9102,0.1453,299.592,94.953,94.161,,,,,,,,,,,,
CalCOFI,2101RL,025,,2101_025d,22-Jan-2021 02:29:11,21-Jan-2021 18:29:11,32.65034,-119.48222,090.0 053.0,090.0,053.0,49.000,49.352,,13.8787,,13.8785,,13.8786,33.3909,,33.3967,33.3871,,33.3891,33.3929,5.5820,,5.8420,5.7629,5.5331,,5.8747,5.7530,5.7580,243.220,254.8629,162.1926,241.089,270.9169,161.3942,161.7934,0.0745,,0.3623,0.3202, ,, , ,24.9703,,24.9674,,0.7605,82.6858,,,,3.6947E+00,,1.0000E-12,,13.8717,13.8715,0.1483,298.996,94.926,94.092,,,,,,,,,,,,
CalCOFI,2101RL,025,,2101_025d,22-Jan-2021 02:29:13,21-Jan-2021 18:29:13,32.65034,-119.48222,090.0 053.0,090.0,053.0,50.000,50.360,,13.8599,,13.8577,,13.8588,33.3899,,33.3957,33.3864,,33.3884,33.3921,5.5595,,5.8185,5.7604,5.5191,,5.8598,5.7515,5.7560,242.239,253.8360,162.5903,240.479,269.8260,161.6518,162.1211,0.0750,,0.3664,0.3234, ,, , ,24.9734,,24.9711,,0.7558,82.7822,,,,3.6947E+00,,1.0000E-12,,13.8528,13.8506,0.1513,298.723,94.507,93.814,50,,33.3981,5.720,249.44,0.323,0.188,,,,,
CalCOFI,2101RL,025,,2101_025d,22-Jan-2021 02:29:14,21-Jan-2021 18:29:14,32.65034,-119.48223,090.0 053.0,090.0,053.0,51.000,51.367,,13.8252,,13.8230,,13.8241,33.3891,,33.3949,33.3859,,33.3879,33.3914,5.5044,,5.7608,5.7542,5.4854,,5.8240,5.7478,5.7510,239.836,251.3205,163.5645,239.008,267.1538,162.2732,162.9189,0.0744,,0.3614,0.3195, ,, , ,24.9800,,24.9779,,0.7537,82.8260,,,,3.6400E+00,,1.0000E-12,,13.8180,13.8158,0.1543,298.121,93.503,93.174,,,,,,,,,,,,
CalCOFI,2101RL,025,,2101_025d,22-Jan-2021 02:29:16,21-Jan-2021 18:29:16,32.65033,-119.48224,090.0 053.0,090.0,053.0,52.000,52.374,,13.7861,,13.7821,,13.7841,33.3942,,33.4000,33.3918,,33.3938,33.3969,5.4571,,5.7113,5.7488,5.4214,,5.7561,5.7408,5.7448,237.772,249.1599,164.4012,236.218,264.8586,163.4517,163.9265,0.0726,,0.3467,0.3080, ,, , ,24.9920,,24.9909,,0.7536,82.8273,,,,3.5205E+00,,1.0000E-12,,13.7788,13.7748,0.1573,297.005,92.629,92.015,,,,,,,,,,,,